Glendale Luke AFB, AZ

9:04 AM MST on May 27, 2017 (GMT -0700)
Luke Air Force Base

Weather History for KLUF - May, 2013

Change the Weather History Date:

Friday, May 24, 2013

  Actual Average Record
Temperature  
Mean Temperature 82 °F -  
Max Temperature 97 °F 98 °F 111 °F (1983)
Min Temperature 66 °F 60 °F 49 °F (1927)
Cooling Degree Days 16    
Growing Degree Days 32 (Base 50)    
Moisture  
Dew Point 28 °F    
Average Humidity 14    
Maximum Humidity 29    
Minimum Humidity 6    
Precipitation  
Precipitation 0.00 in - - ()
Sea Level Pressure  
Sea Level Pressure 29.80 in    
Wind  
Wind Speed 7 mph (SSW)    
Max Wind Speed 18 mph    
Max Gust Speed 22 mph    
Visibility 10 miles    
Events      
Averages and records for this station are not official NWS values.
T = Trace of Precipitation, MM = Missing Value Source: NWS Daily Summary

Daily Weather History Graph

Daily Weather History Graph

Search for Another Location

Airport or City:

Trip Planner

Search our weather history database for the weather conditions in past years. The results will help you decide how hot, cold, wet, or windy it might be!

Date:

Astronomy

May. 24, 2013 Rise Set
Actual Time 5:23 AM MST 7:29 PM MST
Civil Twilight 4:55 AM MST 7:57 PM MST
Nautical Twilight 4:21 AM MST 8:32 PM MST
Astronomical Twilight 3:44 AM MST 9:08 PM MST
Moon 7:17 PM MST (5/24) 4:56 AM MST (5/24)
Length of Visible Light 15h 02m
Length of Day
14h 06m
Full, 100% of the Moon is Illuminated
May 24
Full
May 24
Full
May 31
Last Quarter
Jun 8
New
Jun 16
First Quarter

Hourly Weather History & Observations

Time (MST) Temp. Dew Point Humidity Pressure Visibility Wind Dir Wind Speed Gust Speed Precip Events Conditions
12:58 AM 76.8 °F 26.1 °F 15% 29.77 in 10.0 mi SSW 8.1 mph - N/A   Clear
1:58 AM 75.7 °F 25.7 °F 16% 29.77 in 10.0 mi South 8.1 mph - N/A   Clear
2:58 AM 74.5 °F 26.8 °F 17% 29.79 in 10.0 mi SSE 2.3 mph - N/A   Clear
3:58 AM 70.7 °F 29.1 °F 21% 29.79 in 10.0 mi ENE 3.5 mph - N/A   Clear
4:58 AM 66.4 °F 31.6 °F 27% 29.82 in 10.0 mi NNW 4.6 mph - N/A   Clear
5:58 AM 66.2 °F 32.5 °F 29% 29.83 in 10.0 mi North 4.6 mph - N/A   Clear
6:58 AM 72.7 °F 35.6 °F 26% 29.86 in 10.0 mi North 4.6 mph - N/A   Clear
7:58 AM 77.5 °F 31.1 °F 18% 29.87 in 10.0 mi NNE 4.6 mph - N/A   Clear
8:58 AM 82.2 °F 27.3 °F 13% 29.86 in 10.0 mi East 4.6 mph - N/A   Clear
9:58 AM 85.6 °F 26.8 °F 12% 29.86 in 10.0 mi SE 3.5 mph - N/A   Clear
10:58 AM 88.7 °F 30.6 °F 12% 29.85 in 10.0 mi Variable 3.5 mph - N/A   Clear
11:58 AM 89.6 °F 32.0 °F 13% 29.83 in 10.0 mi WNW 1.2 mph - N/A   Clear
12:58 PM 93.6 °F 32.2 °F 11% 29.81 in 10.0 mi East 8.1 mph - N/A   Partly Cloudy
1:06 PM 93.2 °F 32.0 °F 11% 29.84 in 10.0 mi SSW 13.8 mph 18.4 mph N/A   Light Drizzle
1:19 PM 93.2 °F 32.0 °F 11% 29.83 in 10.0 mi SSW 11.5 mph - N/A   Clear
1:58 PM 95.5 °F 28.9 °F 9% 29.79 in 10.0 mi SW 8.1 mph 17.3 mph 0.00 in   Clear
2:58 PM 95.5 °F 28.9 °F 9% 29.78 in 10.0 mi SW 12.7 mph 17.3 mph N/A   Clear
3:58 PM 97.3 °F 30.2 °F 9% 29.76 in 10.0 mi WSW 16.1 mph 21.9 mph N/A   Clear
4:58 PM 96.6 °F 26.8 °F 8% 29.75 in 10.0 mi SSW 18.4 mph - N/A   Clear
5:58 PM 95.4 °F 22.6 °F 7% 29.75 in 10.0 mi WSW 15.0 mph - N/A   Clear
6:58 PM 92.3 °F 16.7 °F 6% 29.75 in 10.0 mi SW 12.7 mph - N/A   Clear
7:58 PM 88.3 °F 20.5 °F 8% 29.77 in 10.0 mi SW 5.8 mph - N/A   Clear
8:58 PM 84.2 °F 24.8 °F 11% 29.77 in 10.0 mi SW 9.2 mph - N/A   Clear
9:58 PM 83.3 °F 21.7 °F 10% 29.79 in 10.0 mi North 1.2 mph - N/A   Clear
10:58 PM 82.9 °F 21.6 °F 10% 29.79 in 10.0 mi SSW 5.8 mph - N/A   Clear
11:58 PM 79.9 °F 23.5 °F 12% 29.79 in 10.0 mi SE 5.8 mph - N/A   Clear